"Date","Time","Temp","SpCond","Salinity","DO%","DO Conc","Depth","pH","Turbidity+"
"M/D/Y","hh:mm:ss","C","mS/cm","ppt","%","mg/L","m","","NTU"
"03/12/09","08:30:19",19.96,0.005,0.00,100.7,9.16,0.090,1.22,2.3
"03/12/09","08:45:19",19.94,0.005,0.00,100.9,9.18,0.084,1.22,2.3
"03/12/09","09:00:19",19.94,0.006,0.00,101.0,9.19,0.097,1.27,2.3
"03/12/09","09:15:20",19.95,0.006,0.00,101.0,9.19,0.086,1.26,2.2
"03/12/09","09:30:20",20.02,0.006,0.00,101.1,9.19,0.091,1.07,2.2
"03/12/09","09:45:20",20.22,0.006,0.00,101.0,9.14,0.083,0.94,2.2
"03/12/09","10:00:20",20.44,0.006,0.00,100.9,9.10,0.076,0.76,2.2
"03/12/09","10:15:19",20.59,0.006,0.00,101.0,9.08,0.088,0.37,2.3
"03/12/09","10:30:20",20.73,0.006,0.00,101.1,9.06,0.094,0.00,2.3
"03/12/09","10:45:19",20.85,0.006,0.00,101.1,9.04,0.095,0.00,2.5
"03/12/09","11:00:19",21.17,0.006,0.00,101.5,9.02,0.099,0.00,2.6
"03/12/09","11:15:20",20.75,0.006,0.00,101.2,9.06,0.099,0.05,2.9
"03/12/09","11:30:19",25.04,0.006,0.00,97.8,8.08,0.098,0.00,4.4
"03/12/09","11:45:19",21.24,34.121,21.46,114.4,8.96,1.674,8.09,2.9
"03/12/09","12:00:19",21.19,33.010,20.69,108.7,8.56,1.752,8.10,3.0
"03/12/09","12:15:20",21.17,32.529,20.36,107.4,8.47,1.814,8.11,2.9
"03/12/09","12:30:19",21.48,34.610,21.79,114.1,8.87,1.874,8.14,3.4
"03/12/09","12:45:19",21.57,36.000,22.76,116.2,8.97,1.919,8.15,3.1
"03/12/09","13:00:19",21.61,37.332,23.69,119.1,9.14,1.958,8.16,2.9
"03/12/09","13:15:20",21.71,37.836,24.05,121.3,9.28,1.984,8.18,3.2
"03/12/09","13:30:20",21.78,38.356,24.41,122.0,9.29,2.006,8.18,2.8
"03/12/09","13:45:20",21.82,38.552,24.55,124.3,9.46,2.007,8.20,2.8
"03/12/09","14:00:20",21.95,38.696,24.65,126.9,9.63,1.996,8.21,2.7
"03/12/09","14:15:19",21.96,38.801,24.72,128.7,9.75,1.983,8.22,2.7
"03/12/09","14:30:20",22.02,38.881,24.78,129.2,9.78,1.951,8.22,2.6
"03/12/09","14:45:20",22.04,38.829,24.74,128.4,9.72,1.932,8.21,2.5
"03/12/09","15:00:20",21.90,39.068,24.91,128.4,9.73,1.901,8.22,2.4
"03/12/09","15:15:19",21.89,39.037,24.89,129.4,9.81,1.862,8.23,2.4
"03/12/09","15:30:19",22.01,38.639,24.61,128.5,9.74,1.814,8.22,2.5
"03/12/09","15:45:20",22.17,36.865,23.36,128.3,9.77,1.759,8.23,2.8
"03/12/09","16:00:19",22.00,34.968,22.04,119.2,9.17,1.712,8.19,4.7
"03/12/09","16:15:19",22.22,32.257,20.16,119.6,9.27,1.662,8.20,4.2
"03/12/09","16:30:20",22.32,28.964,17.91,118.7,9.30,1.609,8.19,5.0
"03/12/09","16:45:20",22.28,25.627,15.66,113.4,9.01,1.556,8.15,4.5
"03/12/09","17:00:20",22.11,20.863,12.51,109.0,8.84,1.501,8.10,4.7
"03/12/09","17:15:19",22.14,16.952,9.98,107.9,8.88,1.452,8.07,5.0
"03/12/09","17:30:20",22.10,13.923,8.07,105.9,8.82,1.396,8.02,5.4
"03/12/09","17:45:20",21.98,11.513,6.57,102.2,8.61,1.340,7.94,5.9
"03/12/09","18:00:20",21.81,9.653,5.44,99.3,8.44,1.287,7.87,6.7
"03/12/09","18:15:20",21.65,7.811,4.33,97.6,8.37,1.240,7.81,8.7
"03/12/09","18:30:20",21.51,5.860,3.19,94.9,8.22,1.199,7.76,9.9
"03/12/09","18:45:20",21.42,4.638,2.48,92.6,8.07,1.165,7.71,7.6
"03/12/09","19:00:20",21.20,2.840,1.48,89.3,7.87,1.132,7.65,7.9
"03/12/09","19:15:20",20.97,1.412,0.71,85.6,7.61,1.103,7.60,8.8
"03/12/09","19:30:20",20.90,1.073,0.53,84.2,7.50,1.078,7.57,9.2
"03/12/09","19:45:20",20.86,0.859,0.42,83.2,7.42,1.057,7.55,9.0
"03/12/09","20:00:20",20.79,0.701,0.34,82.8,7.40,1.039,7.54,8.9
"03/12/09","20:15:20",20.72,0.613,0.30,82.4,7.37,1.021,7.54,8.6
"03/12/09","20:30:20",20.65,0.621,0.30,82.4,7.39,1.007,7.54,8.5
"03/12/09","20:45:20",20.55,0.614,0.30,82.1,7.37,0.995,7.53,8.2
"03/12/09","21:00:20",20.44,0.581,0.28,81.7,7.35,0.985,7.53,8.1
"03/12/09","21:15:21",20.36,0.546,0.26,81.3,7.33,0.976,7.52,7.8
"03/12/09","21:30:21",20.30,0.529,0.26,81.2,7.33,0.969,7.52,8.1
"03/12/09","21:45:21",20.27,0.542,0.26,81.1,7.32,0.962,7.52,7.6
"03/12/09","22:00:20",20.24,0.562,0.27,81.1,7.33,0.958,7.52,7.9
"03/12/09","22:15:21",20.22,0.584,0.28,80.7,7.30,0.964,7.52,7.7
"03/12/09","22:30:21",20.19,0.570,0.28,80.1,7.24,0.991,7.52,7.8
"03/12/09","22:45:21",20.18,0.580,0.28,79.4,7.18,1.044,7.51,7.5
"03/12/09","23:00:18",20.14,0.659,0.32,79.5,7.20,1.112,7.52,46.1
"03/12/09","23:15:14",20.03,0.654,0.32,76.8,6.97,1.190,7.53,35.1
"03/12/09","23:30:14",19.88,0.867,0.43,73.3,6.67,1.279,7.53,27.7
"03/12/09","23:45:30",19.63,2.129,1.09,57.9,5.27,1.372,7.50,12.2
"03/13/09","00:00:28",19.74,6.372,3.49,60.1,5.38,1.460,7.58,12.4
"03/13/09","00:15:28",20.54,18.038,10.69,75.9,6.41,1.541,7.78,10.5
"03/13/09","00:30:28",20.89,23.595,14.32,89.6,7.36,1.614,8.01,9.9
"03/13/09","00:45:28",21.07,26.527,16.27,94.9,7.68,1.688,8.09,9.8
"03/13/09","01:00:19",21.08,29.255,18.12,95.5,7.65,1.744,8.10,31.9
"03/13/09","01:15:14",21.02,33.320,20.90,100.6,7.94,1.799,8.13,45.4
"03/13/09","01:30:14",21.08,35.218,22.22,102.1,7.98,1.843,8.14,4.1
"03/13/09","01:45:14",21.01,35.814,22.64,100.2,7.82,1.880,8.13,4.1
"03/13/09","02:00:14",20.85,37.123,23.56,97.3,7.58,1.905,8.11,3.7
"03/13/09","02:15:14",20.83,37.953,24.14,96.2,7.47,1.922,8.11,3.2
"03/13/09","02:30:14",20.87,38.347,24.42,95.9,7.43,1.929,8.11,3.3
"03/13/09","02:45:14",20.89,38.474,24.50,95.5,7.39,1.922,8.11,3.2
"03/13/09","03:00:14",20.89,38.475,24.51,93.0,7.20,1.913,8.09,2.8
"03/13/09","03:15:14",20.88,38.465,24.50,90.0,6.97,1.887,8.07,2.7
"03/13/09","03:30:14",20.89,38.628,24.61,88.9,6.88,1.851,8.06,2.6
"03/13/09","03:45:14",20.86,38.795,24.73,88.7,6.86,1.821,8.05,2.8
"03/13/09","04:00:14",20.85,38.886,24.80,88.4,6.84,1.792,8.07,2.2
"03/13/09","04:15:14",20.82,38.647,24.63,91.7,7.11,1.741,8.09,3.2
"03/13/09","04:30:14",20.83,33.337,20.92,91.4,7.24,1.697,8.09,3.7
"03/13/09","04:45:14",20.73,28.081,17.32,86.9,7.04,1.652,8.04,3.9
"03/13/09","05:00:14",20.56,24.018,14.60,84.4,6.96,1.610,8.00,4.7
"03/13/09","05:15:14",20.44,21.286,12.80,80.0,6.69,1.562,7.94,4.5
"03/13/09","05:30:14",20.22,17.030,10.05,75.7,6.46,1.519,7.85,5.1
"03/13/09","05:45:14",20.01,13.383,7.74,72.9,6.33,1.474,7.76,5.7
"03/13/09","06:00:14",19.89,10.530,5.98,71.7,6.31,1.432,7.68,5.9
"03/13/09","06:15:14",19.86,8.951,5.02,71.3,6.32,1.388,7.65,5.8
"03/13/09","06:30:14",19.90,8.892,4.99,70.9,6.27,1.340,7.63,6.2
"03/13/09","06:45:14",19.87,7.431,4.11,71.0,6.32,1.295,7.61,6.5
"03/13/09","07:00:14",19.83,6.316,3.46,71.4,6.39,1.257,7.59,9.9
"03/13/09","07:15:14",19.80,4.928,2.65,71.7,6.44,1.221,7.58,8.7
"03/13/09","07:30:14",19.82,3.587,1.89,72.8,6.57,1.189,7.57,7.9
"03/13/09","07:45:14",19.83,2.397,1.24,74.0,6.70,1.159,7.56,7.9
"03/13/09","08:00:14",19.82,1.687,0.86,75.3,6.84,1.136,7.55,8.8
"03/13/09","08:15:14",19.79,1.252,0.63,76.2,6.93,1.117,7.55,8.4
"03/13/09","08:30:14",19.78,0.976,0.48,76.6,6.98,1.102,7.54,9.5
"03/13/09","08:45:14",19.78,0.725,0.35,77.0,7.02,1.095,7.54,8.1
"03/13/09","09:00:14",19.77,0.578,0.28,77.3,7.05,1.087,7.54,8.6
"03/13/09","09:15:14",19.80,0.539,0.26,77.4,7.06,1.111,7.54,7.2
"03/13/09","09:30:14",19.86,0.537,0.26,77.1,7.02,1.138,7.53,9.9
"03/13/09","09:45:14",19.88,0.534,0.26,77.3,7.03,1.184,7.54,5.8
"03/13/09","10:00:14",20.03,0.595,0.29,78.9,7.16,1.228,7.53,6.9
"03/13/09","10:15:14",20.35,1.120,0.56,82.6,7.43,1.290,7.55,7.6
"03/13/09","10:30:14",21.03,13.051,7.53,103.5,8.82,1.355,7.97,5.2
"03/13/09","10:45:14",21.33,11.242,6.41,110.5,9.43,1.439,8.10,5.2
"03/13/09","11:00:14",21.49,13.701,7.93,123.0,10.37,1.510,8.25,5.0
"03/13/09","11:15:14",21.43,16.823,9.91,122.5,10.22,1.581,8.24,4.9
"03/13/09","11:30:14",21.40,21.782,13.12,113.5,9.30,1.645,8.15,4.8
"03/13/09","11:45:14",21.40,24.851,15.15,104.4,8.46,1.721,8.09,4.0
"03/13/09","12:00:14",21.37,25.702,15.72,102.4,8.27,1.790,8.07,3.8
"03/13/09","12:15:14",21.56,26.044,15.95,103.9,8.35,1.852,8.08,3.6
"03/13/09","12:30:14",21.57,27.426,16.87,102.6,8.20,1.908,8.08,3.6
"03/13/09","12:45:14",21.59,27.190,16.72,102.8,8.22,1.965,8.08,3.8
"03/13/09","13:00:14",21.54,28.427,17.55,102.7,8.18,2.012,8.08,3.6
"03/13/09","13:15:14",21.43,35.348,22.31,109.3,8.48,2.035,8.11,3.2
"03/13/09","13:30:14",21.39,37.051,23.50,113.9,8.79,2.052,8.13,3.7
"03/13/09","13:45:14",21.39,38.242,24.34,116.6,8.95,2.076,8.15,3.1
"03/13/09","14:00:14",21.47,38.343,24.41,117.2,8.98,2.091,8.15,2.9
"03/13/09","14:15:14",21.44,39.597,25.29,118.8,9.06,2.091,8.16,2.7
"03/13/09","14:30:14",21.42,39.974,25.56,119.4,9.09,2.077,8.16,2.6
"03/13/09","14:45:14",21.40,40.868,26.20,120.4,9.14,2.059,8.16,2.4
"03/13/09","15:00:14",21.43,41.027,26.31,120.7,9.16,2.033,8.16,2.8
"03/13/09","15:15:14",21.46,40.932,26.24,120.6,9.14,2.007,8.16,2.5
"03/13/09","15:30:14",21.47,40.738,26.10,117.2,8.89,1.964,8.14,2.9
"03/13/09","15:45:14",21.48,40.287,25.78,117.1,8.90,1.923,8.13,2.7
"03/13/09","16:00:14",21.44,40.374,25.84,119.7,9.10,1.874,8.16,2.3
"03/13/09","16:15:14",21.75,34.092,21.43,116.2,9.01,1.830,8.16,3.8
"03/13/09","16:30:14",21.76,33.718,21.17,113.0,8.78,1.777,8.14,4.0
"03/13/09","16:45:14",22.05,30.161,18.72,110.3,8.65,1.724,8.13,4.7
"03/13/09","17:00:14",22.28,26.579,16.30,109.1,8.63,1.685,8.12,4.6
"03/13/09","17:15:14",22.25,25.590,15.63,106.7,8.48,1.630,8.10,4.4
"03/13/09","17:30:14",22.27,22.460,13.56,104.7,8.42,1.572,8.08,7.0
"03/13/09","17:45:14",22.21,21.268,12.77,102.9,8.32,1.507,8.05,5.1
"03/13/09","18:00:14",22.16,18.075,10.70,101.6,8.33,1.452,8.02,6.2
"03/13/09","18:15:14",22.15,15.817,9.26,100.7,8.32,1.395,7.99,7.3
"03/13/09","18:30:14",22.05,13.248,7.64,98.0,8.19,1.335,7.92,7.8
"03/13/09","18:45:14",21.98,11.160,6.35,95.7,8.07,1.284,7.87,8.3
"03/13/09","19:00:14",21.89,9.352,5.25,93.5,7.95,1.237,7.81,8.4
"03/13/09","19:15:14",21.79,7.702,4.27,91.1,7.80,1.195,7.75,8.6
"03/13/09","19:30:14",21.68,6.104,3.33,88.9,7.67,1.159,7.69,7.9
"03/13/09","19:45:14",21.51,4.321,2.30,86.7,7.55,1.128,7.65,9.2
"03/13/09","20:00:14",21.35,2.613,1.35,83.6,7.35,1.100,7.60,9.2
"03/13/09","20:15:14",21.27,1.870,0.95,82.0,7.23,1.076,7.57,10.4
"03/13/09","20:30:14",21.17,1.678,0.85,80.8,7.14,1.055,7.55,9.7
"03/13/09","20:45:14",21.09,1.502,0.76,79.7,7.06,1.037,7.54,8.7
"03/13/09","21:00:14",21.03,1.203,0.60,79.6,7.07,1.022,7.54,9.0
"03/13/09","21:15:14",20.97,0.966,0.48,79.5,7.08,1.009,7.54,8.4
"03/13/09","21:30:14",20.91,0.781,0.38,79.5,7.08,0.996,7.54,8.6
"03/13/09","21:45:14",20.85,0.659,0.32,79.4,7.09,0.985,7.54,8.3
"03/13/09","22:00:14",20.79,0.586,0.28,79.4,7.09,0.975,7.53,7.8
"03/13/09","22:15:14",20.74,0.534,0.26,79.1,7.08,0.969,7.52,7.6
"03/13/09","22:30:14",20.69,0.509,0.25,78.8,7.06,0.965,7.52,7.5
"03/13/09","22:45:14",20.65,0.504,0.24,78.7,7.06,0.966,7.51,7.1
"03/13/09","23:00:14",20.62,0.525,0.25,78.3,7.02,0.993,7.51,6.7
"03/13/09","23:15:14",20.62,0.530,0.26,77.9,6.99,1.037,7.51,5.6
"03/13/09","23:30:14",20.57,0.585,0.28,77.5,6.96,1.089,7.51,6.6
"03/13/09","23:45:14",20.48,0.578,0.28,75.4,6.78,1.150,7.51,6.9
"03/14/09","00:00:14",20.37,0.752,0.37,73.0,6.57,1.235,7.51,7.3
"03/14/09","00:15:14",20.28,1.449,0.73,67.7,6.10,1.315,7.50,7.0
"03/14/09","00:30:14",19.96,4.210,2.24,49.2,4.42,1.390,7.46,6.7
"03/14/09","00:45:14",20.30,8.175,4.55,59.7,5.25,1.464,7.53,6.4
"03/14/09","01:00:14",20.82,18.476,10.97,68.3,5.73,1.537,7.63,4.9
"03/14/09","01:15:14",20.94,21.939,13.23,77.0,6.36,1.602,7.79,4.0
"03/14/09","01:30:14",21.01,23.850,14.49,80.8,6.62,1.667,7.87,4.0
"03/14/09","01:45:14",21.06,24.708,15.06,79.9,6.51,1.731,7.88,3.8
"03/14/09","02:00:14",20.94,28.555,17.64,81.8,6.58,1.775,7.89,4.3
"03/14/09","02:15:14",20.88,33.064,20.73,84.7,6.71,1.807,7.93,3.9
"03/14/09","02:30:14",20.79,34.381,21.64,85.7,6.76,1.832,7.96,3.9
"03/14/09","02:45:14",20.69,36.806,23.33,87.7,6.86,1.862,7.98,4.4
"03/14/09","03:00:14",20.62,37.430,23.77,87.5,6.84,1.865,7.99,3.7
"03/14/09","03:15:14",20.58,37.751,24.00,86.4,6.75,1.858,7.99,3.5
"03/14/09","03:30:14",20.57,37.924,24.12,83.9,6.55,1.848,7.98,3.4
"03/14/09","03:45:14",20.57,38.153,24.28,86.3,6.73,1.846,7.99,3.2
"03/14/09","04:00:14",20.57,38.165,24.29,86.2,6.72,1.825,8.00,3.4
"03/14/09","04:15:14",20.57,38.213,24.32,82.8,6.45,1.807,7.98,2.7
"03/14/09","04:30:14",20.57,38.161,24.29,81.1,6.32,1.779,7.97,2.9
"03/14/09","04:45:14",20.53,38.811,24.75,82.7,6.43,1.740,7.97,3.3
"03/14/09","05:00:14",20.53,38.764,24.71,78.8,6.13,1.713,7.94,3.2
"03/14/09","05:15:14",20.53,38.704,24.67,80.5,6.26,1.671,7.95,3.2
"03/14/09","05:30:14",20.52,37.370,23.73,79.5,6.22,1.634,7.96,4.2
"03/14/09","05:45:14",20.39,17.618,10.42,72.2,6.13,1.597,7.77,5.4
"03/14/09","06:00:14",20.33,17.515,10.36,72.3,6.14,1.561,7.75,4.9
"03/14/09","06:15:14",20.27,13.723,7.95,69.4,5.99,1.531,7.68,5.4
"03/14/09","06:30:14",20.20,11.469,6.55,68.1,5.94,1.489,7.64,6.1
"03/14/09","06:45:14",20.17,8.973,5.03,67.5,5.94,1.446,7.61,6.7
"03/14/09","07:00:14",20.16,7.735,4.29,68.3,6.03,1.403,7.58,5.7
"03/14/09","07:15:14",20.19,7.039,3.88,68.6,6.08,1.361,7.56,5.7
"03/14/09","07:30:14",20.20,5.980,3.26,69.4,6.17,1.328,7.55,5.8
"03/14/09","07:45:14",20.21,5.218,2.82,70.9,6.31,1.287,7.54,6.5
"03/14/09","08:00:14",20.23,4.543,2.43,72.3,6.45,1.261,7.53,6.6
"03/14/09","08:15:14",20.26,3.982,2.11,73.1,6.54,1.237,7.53,6.4
"03/14/09","08:30:14",20.26,3.268,1.72,74.4,6.66,1.218,7.52,6.2
"03/14/09","08:45:14",20.26,2.656,1.38,74.8,6.71,1.206,7.51,6.8
"03/14/09","09:00:14",20.28,2.213,1.14,75.5,6.78,1.201,7.51,7.6
"03/14/09","09:15:14",20.31,1.938,0.99,75.3,6.77,1.214,7.51,6.3
"03/14/09","09:30:14",20.32,1.603,0.81,75.6,6.80,1.227,7.51,5.8
"03/14/09","09:45:14",20.36,1.268,0.63,75.7,6.81,1.254,7.51,5.0
"03/14/09","10:00:14",20.83,8.059,4.48,83.0,7.23,1.295,7.59,6.5
"03/14/09","10:15:14",20.87,13.180,7.61,82.8,7.08,1.336,7.69,6.2
"03/14/09","10:30:14",20.95,7.216,3.98,80.3,7.00,1.394,7.64,7.6
"03/14/09","10:45:14",20.80,15.143,8.84,82.3,6.99,1.459,7.74,6.0
"03/14/09","11:00:14",21.13,18.557,11.02,99.4,8.29,1.527,7.94,5.0
"03/14/09","11:15:14",21.21,23.720,14.40,108.2,8.83,1.574,8.04,4.8
"03/14/09","11:30:14",21.56,22.434,13.55,108.0,8.80,1.646,8.07,5.2
"03/14/09","11:45:14",21.76,23.456,14.22,108.5,8.78,1.695,8.07,4.5
"03/14/09","12:00:14",22.02,24.025,14.59,110.3,8.86,1.768,8.09,4.3
"03/14/09","12:15:14",22.15,24.192,14.70,113.1,9.05,1.815,8.11,4.3
"03/14/09","12:30:14",22.24,23.705,14.38,111.2,8.91,1.854,8.09,4.2
"03/14/09","12:45:14",22.21,23.852,14.48,111.5,8.93,1.926,8.09,4.3
"03/14/09","13:00:14",22.31,24.004,14.58,112.4,8.98,1.970,8.09,4.1
"03/14/09","13:15:14",22.39,24.018,14.58,115.7,9.23,2.021,8.12,4.0
"03/14/09","13:30:14",22.41,24.047,14.60,118.0,9.41,2.066,8.14,4.0
"03/14/09","13:45:14",22.38,24.091,14.63,121.3,9.67,2.095,8.16,4.2
"03/14/09","14:00:14",22.32,25.609,15.65,116.1,9.21,2.115,8.12,4.3
"03/14/09","14:15:14",22.32,31.726,19.79,117.7,9.12,2.118,8.13,3.8
"03/14/09","14:30:14",22.30,33.927,21.31,120.6,9.27,2.108,8.15,3.6
"03/14/09","14:45:14",22.28,35.523,22.42,122.3,9.34,2.131,8.16,3.7
"03/14/09","15:00:14",22.17,36.856,23.35,123.5,9.40,2.110,8.16,3.2
"03/14/09","15:15:14",22.12,38.052,24.19,124.5,9.44,2.087,8.17,3.2
"03/14/09","15:30:14",22.12,38.336,24.39,122.4,9.27,2.050,8.16,2.9
"03/14/09","15:45:14",22.06,39.041,24.89,120.6,9.11,2.016,8.15,3.0
"03/14/09","16:00:14",22.06,39.074,24.92,120.7,9.12,1.984,8.14,4.0
"03/14/09","16:15:14",22.04,39.851,25.47,121.3,9.14,1.935,8.15,3.2
"03/14/09","16:30:14",22.03,40.062,25.62,115.9,8.73,1.895,8.12,2.8
"03/14/09","16:45:14",22.04,39.687,25.35,118.4,8.93,1.839,8.15,3.0
"03/14/09","17:00:14",22.49,31.367,19.54,117.3,9.08,1.788,8.14,4.7
"03/14/09","17:15:14",22.84,25.687,15.69,114.0,8.96,1.745,8.12,5.7
"03/14/09","17:30:14",23.04,23.356,14.14,115.4,9.12,1.707,8.13,7.1
"03/14/09","17:45:14",22.93,21.911,13.19,109.7,8.73,1.650,8.07,5.6
"03/14/09","18:00:14",22.80,21.590,12.98,106.4,8.50,1.594,8.04,5.9
"03/14/09","18:15:14",22.73,20.361,12.18,103.4,8.31,1.534,8.00,6.3
"03/14/09","18:30:14",22.76,18.632,11.06,102.9,8.32,1.473,7.98,7.6
"03/14/09","18:45:14",22.72,16.556,9.72,101.8,8.30,1.413,7.94,7.2
"03/14/09","19:00:14",22.58,14.759,8.59,98.1,8.07,1.365,7.88,8.4
"03/14/09","19:15:14",22.50,13.371,7.72,95.1,7.87,1.316,7.83,8.3
"03/14/09","19:30:14",22.40,11.782,6.73,92.5,7.72,1.271,7.78,7.5
"03/14/09","19:45:14",22.31,9.760,5.50,89.4,7.53,1.229,7.71,7.6
"03/14/09","20:00:14",22.20,8.292,4.62,87.1,7.39,1.194,7.66,8.1
"03/14/09","20:15:14",22.08,6.994,3.85,85.2,7.27,1.161,7.62,8.1
"03/14/09","20:30:14",21.96,5.674,3.08,83.3,7.16,1.132,7.58,8.1
"03/14/09","20:45:14",21.83,4.198,2.23,81.4,7.05,1.108,7.55,9.2
"03/14/09","21:00:14",21.70,2.985,1.56,80.0,6.97,1.086,7.54,8.9
"03/14/09","21:15:14",21.61,2.129,1.09,79.3,6.94,1.066,7.53,9.1
"03/14/09","21:30:14",21.55,1.650,0.83,78.8,6.92,1.049,7.53,8.7
"03/14/09","21:45:14",21.50,1.301,0.65,78.9,6.94,1.034,7.52,8.5
"03/14/09","22:00:14",21.45,1.053,0.52,78.5,6.92,1.018,7.52,8.4
"03/14/09","22:15:14",21.40,0.886,0.44,78.4,6.91,1.004,7.52,8.3
"03/14/09","22:30:14",21.34,0.761,0.37,78.1,6.91,0.996,7.52,8.4
"03/14/09","22:45:14",21.28,0.645,0.31,78.2,6.92,0.990,7.52,7.9
"03/14/09","23:00:14",21.22,0.575,0.28,78.2,6.93,0.993,7.52,7.2
"03/14/09","23:15:14",21.18,0.547,0.26,78.0,6.92,1.011,7.52,7.7
"03/14/09","23:30:14",21.16,0.553,0.27,77.7,6.90,1.048,7.51,5.8
"03/14/09","23:45:14",21.15,0.572,0.28,76.6,6.80,1.092,7.51,4.8
"03/15/09","00:00:14",21.09,0.617,0.30,76.3,6.78,1.149,7.51,5.7
"03/15/09","00:15:14",21.02,0.667,0.32,74.5,6.62,1.207,7.51,6.4
"03/15/09","00:30:14",20.95,0.939,0.46,71.6,6.37,1.279,7.51,6.6
"03/15/09","00:45:14",20.86,1.722,0.87,68.1,6.06,1.347,7.51,6.4
"03/15/09","01:00:14",20.66,5.066,2.73,55.5,4.90,1.412,7.45,6.3
"03/15/09","01:15:14",20.82,8.356,4.66,60.3,5.25,1.471,7.53,5.9
"03/15/09","01:30:14",21.10,12.532,7.21,65.5,5.59,1.533,7.54,5.3
"03/15/09","01:45:14",21.31,18.046,10.69,69.8,5.81,1.582,7.61,4.8
"03/15/09","02:00:14",21.31,18.418,10.93,70.7,5.88,1.628,7.66,4.9
"03/15/09","02:15:14",21.32,18.567,11.03,71.2,5.91,1.668,7.67,4.7
"03/15/09","02:30:14",21.32,18.602,11.05,71.7,5.96,1.717,7.68,4.6
"03/15/09","02:45:14",21.32,18.673,11.09,71.3,5.92,1.743,7.67,4.5
"03/15/09","03:00:14",21.34,18.790,11.17,71.1,5.90,1.763,7.67,4.5
"03/15/09","03:15:14",21.32,18.779,11.16,71.1,5.90,1.789,7.68,4.8
"03/15/09","03:30:14",21.31,19.273,11.48,72.4,6.00,1.794,7.69,4.5
"03/15/09","03:45:14",21.39,22.768,13.77,69.7,5.69,1.806,7.70,5.1
"03/15/09","04:00:14",21.40,24.393,14.84,68.9,5.59,1.797,7.70,5.0
"03/15/09","04:15:14",21.39,25.953,15.89,68.8,5.55,1.788,7.71,5.4
"03/15/09","04:30:14",21.38,27.673,17.04,68.5,5.49,1.796,7.73,5.0
"03/15/09","04:45:14",21.35,29.276,18.13,70.3,5.60,1.772,7.77,4.3
"03/15/09","05:00:14",21.34,29.149,18.04,66.6,5.31,1.754,7.74,5.2
"03/15/09","05:15:14",21.34,30.742,19.13,72.8,5.76,1.733,7.83,5.1
"03/15/09","05:30:14",21.33,31.184,19.43,71.9,5.68,1.710,7.82,4.8
"03/15/09","05:45:14",21.31,31.471,19.63,69.7,5.51,1.682,7.81,4.8
"03/15/09","06:00:14",21.29,32.172,20.11,70.4,5.55,1.643,7.84,5.9
"03/15/09","06:15:14",21.15,21.138,12.70,69.9,5.77,1.615,7.79,7.8
"03/15/09","06:30:14",20.88,10.734,6.10,69.2,5.97,1.599,7.64,5.7
"03/15/09","06:45:14",20.88,9.702,5.47,68.4,5.92,1.563,7.60,5.4
"03/15/09","07:00:14",20.77,8.319,4.64,68.5,5.97,1.537,7.58,5.6
"03/15/09","07:15:14",20.73,7.313,4.04,67.5,5.91,1.502,7.57,5.9
"03/15/09","07:30:14",20.72,6.484,3.55,67.5,5.92,1.470,7.56,5.7
"03/15/09","07:45:14",20.76,5.039,2.71,67.5,5.95,1.448,7.55,5.9
"03/15/09","08:00:14",20.79,4.319,2.30,68.7,6.07,1.424,7.54,5.6
"03/15/09","08:15:14",20.83,3.639,1.92,69.9,6.18,1.406,7.54,5.8
"03/15/09","08:30:14",20.87,3.880,2.06,71.0,6.27,1.378,7.52,5.6
"03/15/09","08:45:14",20.90,3.654,1.93,72.1,6.37,1.359,7.51,5.8
"03/15/09","09:00:14",20.90,2.946,1.54,72.9,6.45,1.345,7.52,6.9
"03/15/09","09:15:14",20.93,2.434,1.26,73.7,6.53,1.341,7.52,5.6
"03/15/09","09:30:14",20.96,2.080,1.06,74.3,6.59,1.348,7.52,5.3
"03/15/09","09:45:14",21.03,1.771,0.90,74.9,6.64,1.354,7.52,5.3
"03/15/09","10:00:14",21.05,2.557,1.32,74.7,6.60,1.366,7.47,5.1
"03/15/09","10:15:14",21.04,11.843,6.78,67.2,5.75,1.380,7.51,4.8
"03/15/09","10:30:14",21.35,8.578,4.79,76.4,6.58,1.415,7.64,6.9
"03/15/09","10:45:14",21.61,7.801,4.33,85.5,7.35,1.461,7.74,9.5
"03/15/09","11:00:14",21.53,7.494,4.14,83.1,7.16,1.498,7.70,9.7
"03/15/09","11:15:14",22.04,9.119,5.11,97.0,8.23,1.540,7.90,8.8
"03/15/09","11:30:14",22.25,9.506,5.34,99.3,8.38,1.586,7.94,8.9
"03/15/09","11:45:14",22.46,15.459,9.03,104.2,8.57,1.644,7.98,8.6
"03/15/09","12:00:14",22.52,18.265,10.82,99.4,8.08,1.699,7.91,8.7
"03/15/09","12:15:14",22.63,19.721,11.76,90.8,7.33,1.743,7.83,11.5
"03/15/09","12:30:14",22.92,20.856,12.50,93.5,7.47,1.785,7.85,11.4
"03/15/09","12:45:14",23.06,22.188,13.37,95.5,7.58,1.836,7.89,12.3
"03/15/09","13:00:14",23.02,23.345,14.13,93.4,7.38,1.884,7.88,14.8
"03/15/09","13:15:14",23.09,24.009,14.57,92.0,7.24,1.925,7.87,18.9
"03/15/09","13:30:14",23.31,24.510,14.90,97.4,7.63,1.983,7.93,22.3
"03/15/09","13:45:14",23.32,23.878,14.48,101.4,7.96,2.009,7.97,16.9
"03/15/09","14:00:14",23.32,23.320,14.11,96.7,7.60,2.051,7.92,16.6
"03/15/09","14:15:14",23.30,22.832,13.79,90.5,7.13,2.077,7.85,18.1
"03/15/09","14:30:14",23.23,24.505,14.90,93.5,7.33,2.108,7.89,17.3
"03/15/09","14:45:14",23.19,26.665,16.34,97.3,7.57,2.127,7.94,15.2
"03/15/09","15:00:14",23.28,27.821,17.12,103.1,7.97,2.145,8.00,11.8
"03/15/09","15:15:14",23.30,27.740,17.07,105.8,8.18,2.147,8.03,8.7
"03/15/09","15:30:14",23.35,27.575,16.95,104.5,8.08,2.125,8.01,9.5
"03/15/09","15:45:14",23.41,27.838,17.13,103.2,7.96,2.107,8.00,13.7
"03/15/09","16:00:14",23.44,28.785,17.77,103.6,7.96,2.082,8.01,9.7
"03/15/09","16:15:14",23.54,29.220,18.06,109.3,8.37,2.077,8.06,8.4
"03/15/09","16:30:14",23.50,28.985,17.91,105.8,8.11,2.026,8.04,8.1
"03/15/09","16:45:14",23.48,28.678,17.70,104.2,8.00,1.979,8.02,7.2
"03/15/09","17:00:14",23.51,26.419,16.17,101.2,7.84,1.939,7.99,6.9
"03/15/09","17:15:14",23.49,25.217,15.37,98.1,7.64,1.902,7.95,8.9
"03/15/09","17:30:14",23.50,23.217,14.04,94.8,7.43,1.840,7.91,11.4
"03/15/09","17:45:14",23.55,21.952,13.21,93.1,7.32,1.779,7.88,13.1
"03/15/09","18:00:14",23.59,20.855,12.49,92.8,7.33,1.733,7.87,9.2
"03/15/09","18:15:14",23.55,20.169,12.04,91.6,7.25,1.679,7.85,10.6
"03/15/09","18:30:14",23.50,19.227,11.43,92.4,7.35,1.632,7.85,12.1
"03/15/09","18:45:14",23.44,17.762,10.49,92.2,7.38,1.589,7.83,11.1
"03/15/09","19:00:14",23.38,15.917,9.31,91.3,7.37,1.530,7.82,8.3
"03/15/09","19:15:14",23.34,14.104,8.17,91.6,7.45,1.483,7.80,9.6
"03/15/09","19:30:14",23.22,12.391,7.10,89.4,7.33,1.436,7.76,8.9
"03/15/09","19:45:14",23.12,10.886,6.18,87.7,7.24,1.391,7.72,8.5
"03/15/09","20:00:14",23.05,9.541,5.36,86.0,7.15,1.344,7.69,8.8
"03/15/09","20:15:14",22.95,8.089,4.49,84.1,7.04,1.299,7.65,8.8
"03/15/09","20:30:14",22.80,6.573,3.60,82.6,6.97,1.260,7.63,8.1
"03/15/09","20:45:14",22.67,4.987,2.68,81.3,6.91,1.224,7.60,8.0
"03/15/09","21:00:14",22.59,3.578,1.88,79.9,6.83,1.192,7.57,8.4
"03/15/09","21:15:14",22.51,2.642,1.37,79.2,6.81,1.162,7.56,8.2
"03/15/09","21:30:14",22.42,1.869,0.95,78.6,6.78,1.135,7.54,9.3
"03/15/09","21:45:14",22.34,1.400,0.70,78.2,6.77,1.112,7.54,9.7
"03/15/09","22:00:14",22.29,1.133,0.56,78.0,6.76,1.090,7.53,9.2
"03/15/09","22:15:14",22.23,0.947,0.47,77.9,6.76,1.072,7.53,8.3
"03/15/09","22:30:14",22.17,0.802,0.39,77.8,6.76,1.057,7.53,7.6
"03/15/09","22:45:14",22.09,0.674,0.33,77.8,6.77,1.044,7.53,7.6
"03/15/09","23:00:14",22.02,0.585,0.28,77.7,6.78,1.033,7.53,6.7
"03/15/09","23:15:14",21.95,0.537,0.26,77.2,6.75,1.025,7.52,7.3
"03/15/09","23:30:14",21.89,0.505,0.24,77.2,6.75,1.032,7.52,6.1
"03/15/09","23:45:14",21.86,0.495,0.24,76.8,6.72,1.046,7.52,5.9
"03/16/09","00:00:14",21.84,0.493,0.24,76.4,6.69,1.085,7.52,5.1
"03/16/09","00:15:14",21.84,0.495,0.24,75.8,6.64,1.126,7.52,4.3
"03/16/09","00:30:14",21.78,0.565,0.27,75.8,6.65,1.178,7.52,5.6
"03/16/09","00:45:14",21.72,0.593,0.29,74.3,6.52,1.234,7.52,5.8
"03/16/09","01:00:14",21.65,0.735,0.36,72.0,6.33,1.296,7.53,6.1
"03/16/09","01:15:14",21.64,1.160,0.58,69.0,6.06,1.348,7.53,6.6
"03/16/09","01:30:14",21.53,2.093,1.07,62.1,5.45,1.407,7.51,6.6
"03/16/09","01:45:14",21.55,3.903,2.07,58.7,5.11,1.467,7.53,7.0
"03/16/09","02:00:14",21.69,6.439,3.52,61.1,5.27,1.511,7.52,6.7